When you browse on this site, cookies collect data to enhance your experience and personalize the content and advertising you see.
Visit our Privacy Policy to learn more. By continuing to use the site, you agree to this use of cookies and data.
  • In Schweiz
  • Länderverzeichnis
  • Für 7 Tage
  • Wassertemperatur
  • Satellitenkarten
  • Wetterkarte
  • Widgets
  • user-avatar
    Anmelden

    Stündliche Wetter Bezlepkino

    Heute, 17 Juni, Montag

    Zeit Temperatur Niederschläge Wind Luftdruck Luftfeuchtigkeit
    00:00 +13°C° 0 mm 0 m/S 743 mmHg 90%
    01:00 +13°C° 0 mm 0 m/S 743 mmHg 91%
    02:00 +13°C° 0 mm 0 m/S 743 mmHg 91%
    03:00 +14°C° 0 mm 0 m/S 743 mmHg 90%
    04:00 +14°C° 0 mm 0 m/S 743 mmHg 89%
    05:00 +15°C° 0 mm 0 m/S 743 mmHg 88%
    06:00 +19°C° 0 mm 1 m/S 743 mmHg 83%
    07:00 +20°C° 0 mm 1 m/S 743 mmHg 79%
    08:00 +21°C° 0 mm 2 m/S 743 mmHg 74%
    09:00 +23°C° 0 mm 2 m/S 743 mmHg 69%
    10:00 +24°C° 0 mm 2 m/S 743 mmHg 64%
    11:00 +25°C° 0 mm 3 m/S 743 mmHg 59%
    12:00 +25°C° 0 mm 3 m/S 743 mmHg 59%
    13:00 +25°C° 0 mm 3 m/S 743 mmHg 59%
    14:00 +25°C° 0 mm 3 m/S 743 mmHg 59%
    15:00 +25°C° 0.1 mm 2 m/S 742 mmHg 62%
    16:00 +25°C° 0.1 mm 2 m/S 742 mmHg 66%
    17:00 +24°C° 0.1 mm 2 m/S 742 mmHg 70%
    18:00 +23°C° 0 mm 1 m/S 742 mmHg 75%
    19:00 +21°C° 0 mm 1 m/S 742 mmHg 80%
    20:00 +19°C° 0 mm 1 m/S 742 mmHg 84%
    21:00 +19°C° 0 mm 1 m/S 742 mmHg 86%
    22:00 +18°C° 0 mm 2 m/S 742 mmHg 88%
    23:00 +17°C° 0 mm 2 m/S 742 mmHg 90%

    Morgen, 18 Juni, Dienstag

    Zeit Temperatur Niederschläge Wind Luftdruck Luftfeuchtigkeit
    00:00 +17°C° 0.2 mm 2 m/S 741 mmHg 91%
    01:00 +17°C° 0.2 mm 3 m/S 741 mmHg 93%
    02:00 +17°C° 0.2 mm 3 m/S 741 mmHg 94%
    03:00 +17°C° 1.2 mm 3 m/S 741 mmHg 94%
    04:00 +17°C° 1.2 mm 3 m/S 741 mmHg 95%
    05:00 +18°C° 1.2 mm 4 m/S 741 mmHg 95%
    06:00 +18°C° 0.2 mm 4 m/S 741 mmHg 94%
    07:00 +19°C° 0.2 mm 3 m/S 741 mmHg 94%
    08:00 +19°C° 0.2 mm 3 m/S 741 mmHg 93%
    09:00 +20°C° 0 mm 3 m/S 741 mmHg 92%
    10:00 +20°C° 0 mm 3 m/S 741 mmHg 91%
    11:00 +20°C° 0 mm 4 m/S 741 mmHg 90%
    12:00 +21°C° 0 mm 4 m/S 741 mmHg 86%
    13:00 +22°C° 0 mm 4 m/S 741 mmHg 81%
    14:00 +23°C° 0 mm 4 m/S 741 mmHg 77%
    15:00 +24°C° 0.1 mm 3 m/S 741 mmHg 76%
    16:00 +24°C° 0.1 mm 3 m/S 741 mmHg 75%
    17:00 +25°C° 0.1 mm 3 m/S 741 mmHg 73%
    18:00 +22°C° 0 mm 3 m/S 742 mmHg 77%
    19:00 +21°C° 0 mm 2 m/S 742 mmHg 80%
    20:00 +19°C° 0 mm 2 m/S 742 mmHg 83%
    21:00 +18°C° 0 mm 2 m/S 742 mmHg 85%
    22:00 +17°C° 0 mm 2 m/S 742 mmHg 86%
    23:00 +16°C° 0 mm 2 m/S 743 mmHg 87%

    übermorgen, 19 Juni, Mittwoch

    Zeit Temperatur Niederschläge Wind Luftdruck Luftfeuchtigkeit
    00:00 +16°C° 0 mm 2 m/S 743 mmHg 88%
    01:00 +15°C° 0 mm 2 m/S 743 mmHg 88%
    02:00 +15°C° 0 mm 2 m/S 743 mmHg 89%
    03:00 +15°C° 0 mm 2 m/S 743 mmHg 87%
    04:00 +15°C° 0 mm 2 m/S 743 mmHg 85%
    05:00 +15°C° 0 mm 2 m/S 744 mmHg 83%
    06:00 +17°C° 0 mm 2 m/S 744 mmHg 79%
    07:00 +19°C° 0 mm 2 m/S 744 mmHg 74%
    08:00 +21°C° 0 mm 3 m/S 744 mmHg 69%
    09:00 +22°C° 0 mm 3 m/S 744 mmHg 65%
    10:00 +24°C° 0 mm 3 m/S 744 mmHg 60%
    11:00 +25°C° 0 mm 3 m/S 745 mmHg 56%
    12:00 +26°C° 0 mm 3 m/S 744 mmHg 55%
    13:00 +26°C° 0 mm 3 m/S 744 mmHg 54%
    14:00 +26°C° 0 mm 3 m/S 744 mmHg 54%
    15:00 +26°C° 0 mm 2 m/S 744 mmHg 57%
    16:00 +26°C° 0 mm 2 m/S 744 mmHg 60%
    17:00 +26°C° 0 mm 2 m/S 744 mmHg 64%
    18:00 +24°C° 0 mm 1 m/S 744 mmHg 67%
    19:00 +22°C° 0 mm 1 m/S 744 mmHg 70%
    20:00 +20°C° 0 mm 1 m/S 744 mmHg 73%
    21:00 +19°C° 0 mm 1 m/S 744 mmHg 74%
    22:00 +18°C° 0 mm 1 m/S 745 mmHg 75%
    23:00 +16°C° 0 mm 1 m/S 745 mmHg 76%

    20 Juni, Donnerstag

    Zeit Temperatur Niederschläge Wind Luftdruck Luftfeuchtigkeit
    00:00 +16°C° 0 mm 1 m/S 745 mmHg 77%
    01:00 +15°C° 0 mm 1 m/S 745 mmHg 78%
    02:00 +15°C° 0 mm 1 m/S 745 mmHg 80%
    03:00 +16°C° 0 mm 1 m/S 745 mmHg 79%
    04:00 +16°C° 0 mm 1 m/S 746 mmHg 79%
    05:00 +18°C° 0 mm 1 m/S 746 mmHg 78%
    06:00 +20°C° 0 mm 1 m/S 746 mmHg 73%
    07:00 +21°C° 0 mm 1 m/S 746 mmHg 69%
    08:00 +23°C° 0 mm 1 m/S 746 mmHg 64%
    09:00 +24°C° 0 mm 1 m/S 746 mmHg 60%
    10:00 +26°C° 0 mm 1 m/S 746 mmHg 56%
    11:00 +27°C° 0 mm 1 m/S 746 mmHg 52%
    12:00 +27°C° 0 mm 1 m/S 746 mmHg 49%
    13:00 +28°C° 0 mm 1 m/S 746 mmHg 47%
    14:00 +28°C° 0 mm 1 m/S 746 mmHg 45%
    15:00 +28°C° 0 mm 1 m/S 746 mmHg 49%
    16:00 +26°C° 0 mm 0 m/S 745 mmHg 53%
    17:00 +26°C° 0 mm 0 m/S 745 mmHg 56%
    18:00 +23°C° 0 mm 0 m/S 745 mmHg 60%
    19:00 +21°C° 0 mm 0 m/S 745 mmHg 64%
    20:00 +19°C° 0 mm 0 m/S 745 mmHg 68%
    21:00 +20°C° 0 mm 1 m/S 745 mmHg 71%
    22:00 +19°C° 0 mm 1 m/S 746 mmHg 73%
    23:00 +19°C° 0 mm 1 m/S 746 mmHg 76%

    21 Juni, Freitag

    Zeit Temperatur Niederschläge Wind Luftdruck Luftfeuchtigkeit
    00:00 +18°C° 0 mm 1 m/S 746 mmHg 78%
    01:00 +18°C° 0 mm 1 m/S 746 mmHg 80%
    02:00 +16°C° 0 mm 1 m/S 746 mmHg 82%
    03:00 +18°C° 0 mm 1 m/S 746 mmHg 82%
    04:00 +19°C° 0 mm 1 m/S 746 mmHg 82%
    05:00 +19°C° 0 mm 1 m/S 746 mmHg 82%
    06:00 +21°C° 0 mm 1 m/S 747 mmHg 77%
    07:00 +23°C° 0 mm 1 m/S 747 mmHg 72%
    08:00 +24°C° 0 mm 1 m/S 747 mmHg 67%
    09:00 +25°C° 0 mm 1 m/S 747 mmHg 62%
    10:00 +26°C° 0 mm 2 m/S 747 mmHg 58%
    11:00 +27°C° 0 mm 2 m/S 747 mmHg 54%
    12:00 +27°C° 0 mm 2 m/S 746 mmHg 54%
    13:00 +28°C° 0 mm 2 m/S 746 mmHg 54%
    14:00 +28°C° 0 mm 2 m/S 746 mmHg 53%
    15:00 +27°C° 0 mm 2 m/S 746 mmHg 57%
    16:00 +27°C° 0 mm 2 m/S 746 mmHg 60%
    17:00 +27°C° 0 mm 2 m/S 745 mmHg 63%
    18:00 +25°C° 0 mm 2 m/S 745 mmHg 68%
    19:00 +23°C° 0 mm 1 m/S 746 mmHg 72%
    20:00 +22°C° 0 mm 1 m/S 746 mmHg 76%
    21:00 +21°C° 0 mm 1 m/S 746 mmHg 77%
    22:00 +20°C° 0 mm 1 m/S 746 mmHg 79%
    23:00 +19°C° 0 mm 2 m/S 746 mmHg 80%

    22 Juni, Samstag

    Zeit Temperatur Niederschläge Wind Luftdruck Luftfeuchtigkeit
    00:00 +18°C° 0 mm 2 m/S 746 mmHg 82%
    01:00 +19°C° 0 mm 1 m/S 746 mmHg 84%
    02:00 +18°C° 0 mm 1 m/S 746 mmHg 85%
    03:00 +19°C° 0 mm 1 m/S 746 mmHg 85%
    04:00 +19°C° 0 mm 1 m/S 746 mmHg 85%
    05:00 +20°C° 0 mm 1 m/S 746 mmHg 85%
    06:00 +21°C° 0 mm 2 m/S 746 mmHg 81%
    07:00 +23°C° 0 mm 2 m/S 746 mmHg 76%
    08:00 +25°C° 0 mm 2 m/S 747 mmHg 71%
    09:00 +26°C° 0 mm 2 m/S 746 mmHg 67%
    10:00 +27°C° 0 mm 2 m/S 746 mmHg 62%
    11:00 +28°C° 0 mm 3 m/S 746 mmHg 57%
    12:00 +28°C° 0 mm 3 m/S 746 mmHg 57%
    13:00 +28°C° 0 mm 3 m/S 746 mmHg 58%
    14:00 +28°C° 0 mm 3 m/S 746 mmHg 58%
    15:00 +28°C° 0 mm 3 m/S 746 mmHg 61%
    16:00 +28°C° 0 mm 3 m/S 745 mmHg 64%
    17:00 +28°C° 0 mm 2 m/S 745 mmHg 67%
    18:00 +26°C° 0 mm 2 m/S 745 mmHg 72%
    19:00 +24°C° 0 mm 2 m/S 745 mmHg 76%
    20:00 +21°C° 0 mm 2 m/S 745 mmHg 80%
    21:00 +21°C° 0 mm 2 m/S 745 mmHg 82%
    22:00 +20°C° 0 mm 2 m/S 745 mmHg 83%
    23:00 +19°C° 0 mm 2 m/S 745 mmHg 85%
    Mehr zeigen